| time (UTC) | temp F | wind direction | speed MPH | gust MPH | rain 1hr in | rain 24hr in | rain mn in | humidity % | barometer mb |
| 20260509203036 | 56 | 331 | 10.0 | 20.0 | 0.00 | 0.12 | 0.12 | 34 | 1014.7 |
| 20260509203007 | 56 | 326 | 11.0 | 20.0 | 0.00 | 0.12 | 0.12 | 34 | 1007.5 |
| 20260509201539 | 57 | 325 | 7.0 | 23.0 | 0.00 | 0.12 | 0.12 | 35 | 1014.6 |
| 20260509201505 | 57 | 320 | 8.0 | 23.0 | 0.00 | 0.12 | 0.12 | 35 | 1007.4 |
| 20260509200055 | 56 | 341 | 6.0 | 19.0 | 0.00 | 0.12 | 0.12 | 33 | 1014.5 |
| 20260509200004 | 54 | 341 | 8.0 | 19.0 | 0.00 | 0.12 | 0.12 | 34 | 1007.3 |
| 20260509194600 | 54 | 275 | 12.0 | 20.0 | 0.00 | 0.12 | 0.12 | 33 | 1006.9 |
| 20260509194540 | 54 | 350 | 9.0 | 20.0 | 0.00 | 0.12 | 0.12 | 33 | 1014.3 |
| 20260509193115 | 56 | 309 | 10.0 | 21.0 | 0.00 | 0.12 | 0.12 | 30 | 1006.7 |
| 20260509193039 | 56 | 323 | 8.0 | 22.0 | 0.00 | 0.12 | 0.12 | 30 | 1014.1 |
| 20260509191557 | 55 | 305 | 12.0 | 20.0 | 0.00 | 0.12 | 0.12 | 33 | 1006.7 |
| 20260509191537 | 55 | 277 | 11.0 | 20.0 | 0.00 | 0.12 | 0.12 | 32 | 1013.9 |
| 20260509190059 | 55 | 338 | 10.0 | 21.0 | 0.00 | 0.12 | 0.12 | 34 | 1006.5 |
| 20260509190038 | 55 | 307 | 10.0 | 22.0 | 0.00 | 0.12 | 0.12 | 34 | 1013.8 |
| 20260509184606 | 54 | 328 | 8.0 | 20.0 | 0.00 | 0.12 | 0.12 | 34 | 1006.5 |
| 20260509184555 | 54 | 273 | 10.0 | 20.0 | 0.00 | 0.12 | 0.12 | 35 | 1013.6 |
| 20260509183052 | 54 | 256 | 4.0 | 21.0 | 0.00 | 0.12 | 0.12 | 37 | 1006.1 |
| 20260509183039 | 54 | 311 | 3.0 | 21.0 | 0.00 | 0.12 | 0.12 | 38 | 1013.5 |
| 20260509181553 | 54 | 303 | 9.0 | 20.0 | 0.00 | 0.12 | 0.12 | 38 | 1006.0 |
| 20260509181545 | 54 | 338 | 9.0 | 20.0 | 0.00 | 0.12 | 0.12 | 35 | 1013.4 |
| 20260509180048 | 54 | 336 | 9.0 | 16.0 | 0.00 | 0.12 | 0.12 | 38 | 1005.9 |
| 20260509180035 | 54 | 332 | 8.0 | 20.0 | 0.00 | 0.12 | 0.12 | 38 | 1013.3 |
| 20260509174547 | 53 | 258 | 6.0 | 17.0 | 0.00 | 0.12 | 0.12 | 38 | 1005.7 |
| 20260509174538 | 53 | 311 | 7.0 | 17.0 | 0.00 | 0.12 | 0.12 | 37 | 1013.1 |
| 20260509173052 | 54 | 329 | 9.0 | 21.0 | 0.00 | 0.12 | 0.12 | 39 | 1005.5 |
| 20260509173044 | 54 | 255 | 8.0 | 21.0 | 0.00 | 0.12 | 0.12 | 39 | 1013.0 |
| 20260509171553 | 54 | 289 | 9.0 | 20.0 | 0.00 | 0.12 | 0.12 | 39 | 1005.5 |
| 20260509171539 | 54 | 322 | 10.0 | 20.0 | 0.00 | 0.12 | 0.12 | 38 | 1012.8 |
| 20260509170041 | 52 | 283 | 6.0 | 15.0 | 0.00 | 0.12 | 0.12 | 44 | 1005.5 |
| 20260509170039 | 52 | 285 | 6.0 | 14.0 | 0.00 | 0.12 | 0.12 | 43 | 1012.5 |
| 20260509164538 | 51 | 344 | 10.0 | 16.0 | 0.00 | 0.12 | 0.12 | 44 | 1005.1 |
| 20260509163040 | 51 | 294 | 9.0 | 18.0 | 0.00 | 0.12 | 0.12 | 49 | 1012.5 |
| 20260509163037 | 51 | 333 | 9.0 | 18.0 | 0.00 | 0.12 | 0.12 | 49 | 1005.1 |
| 20260509161539 | 52 | 303 | 5.0 | 16.0 | 0.00 | 0.12 | 0.12 | 52 | 1012.2 |
| 20260509161537 | 52 | 316 | 8.0 | 16.0 | 0.00 | 0.12 | 0.12 | 52 | 1004.9 |
| 20260509160044 | 51 | 325 | 7.0 | 17.0 | 0.00 | 0.12 | 0.12 | 55 | 1012.4 |
| 20260509160035 | 51 | 315 | 7.0 | 17.0 | 0.00 | 0.12 | 0.12 | 55 | 1004.8 |
| 20260509154541 | 50 | 300 | 7.0 | 16.0 | 0.00 | 0.12 | 0.12 | 54 | 1012.0 |
| 20260509154535 | 50 | 302 | 7.0 | 16.0 | 0.00 | 0.12 | 0.12 | 55 | 1004.6 |
| 20260509153043 | 49 | 339 | 7.0 | 13.0 | 0.00 | 0.12 | 0.12 | 60 | 1011.9 |
| 20260509153031 | 49 | 330 | 7.0 | 13.0 | 0.00 | 0.12 | 0.12 | 60 | 1004.5 |
| 20260509151539 | 47 | 306 | 2.0 | 12.0 | 0.00 | 0.12 | 0.12 | 71 | 1011.7 |
| 20260509151527 | 47 | 306 | 2.0 | 12.0 | 0.00 | 0.12 | 0.12 | 72 | 1004.3 |
| 20260509150043 | 47 | 310 | 5.0 | 11.0 | 0.00 | 0.12 | 0.12 | 74 | 1011.5 |
| 20260509150027 | 47 | 310 | 6.0 | 11.0 | 0.00 | 0.12 | 0.12 | 74 | 1004.2 |
| 20260509144555 | 46 | 301 | 7.0 | 14.0 | 0.00 | 0.12 | 0.12 | 77 | 1011.5 |
| 20260509144526 | 46 | 301 | 7.0 | 14.0 | 0.00 | 0.12 | 0.12 | 78 | 1004.1 |
| 20260509143040 | 46 | 286 | 7.0 | 14.0 | 0.00 | 0.12 | 0.12 | 80 | 1011.2 |
| 20260509143026 | 46 | 290 | 7.0 | 14.0 | 0.00 | 0.12 | 0.12 | 80 | 1003.8 |
| 20260509141540 | 46 | 281 | 5.0 | 9.0 | 0.00 | 0.12 | 0.12 | 82 | 1011.2 |
| 20260509141525 | 46 | 281 | 5.0 | 9.0 | 0.00 | 0.12 | 0.12 | 83 | 1003.8 |
| 20260509140044 | 45 | 281 | 4.0 | 11.0 | 0.00 | 0.12 | 0.12 | 83 | 1011.1 |
| 20260509140020 | 45 | 288 | 5.0 | 11.0 | 0.00 | 0.12 | 0.12 | 84 | 1003.6 |
| 20260509134559 | 44 | 281 | 3.0 | 10.0 | 0.00 | 0.12 | 0.12 | 87 | 1010.9 |
| 20260509134519 | 44 | 281 | 4.0 | 10.0 | 0.00 | 0.12 | 0.12 | 87 | 1003.5 |
| 20260509133045 | 43 | 272 | 3.0 | 9.0 | 0.00 | 0.12 | 0.12 | 87 | 1010.8 |
| 20260509133021 | 43 | 271 | 3.0 | 9.0 | 0.00 | 0.12 | 0.12 | 88 | 1003.5 |
| 20260509131539 | 43 | 259 | 1.0 | 4.0 | 0.00 | 0.12 | 0.12 | 89 | 1010.6 |
| 20260509131522 | 43 | 258 | 1.0 | 4.0 | 0.00 | 0.12 | 0.12 | 90 | 1003.3 |
| 20260509130052 | 41 | 259 | 1.0 | 4.0 | 0.01 | 0.12 | 0.12 | 90 | 1010.6 |
| 20260509130016 | 41 | 259 | 1.0 | 4.0 | 0.01 | 0.12 | 0.12 | 90 | 1003.3 |
| 20260509124537 | 41 | 0 | 1.0 | 4.0 | 0.05 | 0.12 | 0.12 | 90 | 1010.3 |
| 20260509124515 | 41 | 262 | 0.0 | 4.0 | 0.05 | 0.12 | 0.12 | 90 | 1003.0 |
| 20260509123035 | 40 | 294 | 2.0 | 5.0 | 0.10 | 0.12 | 0.12 | 90 | 1010.4 |
| 20260509123013 | 40 | 294 | 2.0 | 4.0 | 0.10 | 0.12 | 0.12 | 90 | 1003.2 |
| 20260509121600 | 40 | 295 | 0.0 | 4.0 | 0.12 | 0.12 | 0.12 | 90 | 1010.8 |
| 20260509121520 | 40 | 295 | 0.0 | 4.0 | 0.12 | 0.12 | 0.12 | 91 | 1003.5 |
| 20260509120039 | 41 | 294 | 1.0 | 7.0 | 0.10 | 0.10 | 0.10 | 89 | 1010.8 |
| 20260509120013 | 41 | 294 | 0.0 | 5.0 | 0.10 | 0.10 | 0.10 | 90 | 1003.6 |
| 20260509114540 | 41 | 321 | 2.0 | 11.0 | 0.07 | 0.07 | 0.07 | 87 | 1010.7 |
| 20260509114506 | 41 | 321 | 2.0 | 8.0 | 0.07 | 0.07 | 0.07 | 88 | 1003.4 |
| 20260509113039 | 42 | 338 | 6.0 | 14.0 | 0.02 | 0.02 | 0.02 | 83 | 1010.4 |
| 20260509113003 | 42 | 339 | 6.0 | 14.0 | 0.01 | 0.01 | 0.01 | 84 | 1003.1 |
| 20260509111558 | 43 | 284 | 5.0 | 15.0 | 0.00 | 0.00 | 0.00 | 78 | 1002.8 |
| 20260509111551 | 43 | 318 | 5.0 | 15.0 | 0.00 | 0.00 | 0.00 | 78 | 1010.0 |
| 20260509110056 | 45 | 306 | 8.0 | 19.0 | 0.00 | 0.00 | 0.00 | 73 | 1002.4 |
| 20260509110042 | 45 | 335 | 7.0 | 20.0 | 0.00 | 0.00 | 0.00 | 73 | 1009.8 |
| 20260509104553 | 47 | 326 | 9.0 | 19.0 | 0.00 | 0.00 | 0.00 | 63 | 1002.2 |
| 20260509104545 | 47 | 332 | 9.0 | 21.0 | 0.00 | 0.00 | 0.00 | 62 | 1009.6 |
| 20260509103050 | 47 | 323 | 8.0 | 16.0 | 0.00 | 0.00 | 0.00 | 58 | 1002.0 |
| 20260509103048 | 47 | 300 | 8.0 | 16.0 | 0.00 | 0.00 | 0.00 | 57 | 1009.2 |
| 20260509101608 | 45 | 298 | 1.0 | 3.0 | 0.00 | 0.00 | 0.00 | 58 | 1008.9 |
| 20260509101551 | 45 | 298 | 1.0 | 3.0 | 0.00 | 0.00 | 0.00 | 58 | 1001.8 |
| 20260509100055 | 45 | 298 | 0.0 | 2.0 | 0.00 | 0.00 | 0.00 | 60 | 1001.8 |
| 20260509100042 | 44 | 0 | 0.0 | 2.0 | 0.00 | 0.00 | 0.00 | 60 | 1008.9 |
| 20260509094551 | 46 | 298 | 0.0 | 4.0 | 0.00 | 0.00 | 0.00 | 58 | 1001.6 |
| 20260509094539 | 46 | 0 | 0.0 | 4.0 | 0.00 | 0.00 | 0.00 | 58 | 1008.7 |
| 20260509093047 | 45 | 296 | 1.0 | 4.0 | 0.00 | 0.00 | 0.00 | 58 | 1001.7 |
| 20260509093043 | 45 | 296 | 1.0 | 4.0 | 0.00 | 0.00 | 0.00 | 59 | 1008.7 |
| 20260509091546 | 45 | 296 | 1.0 | 3.0 | 0.00 | 0.00 | 0.00 | 57 | 1001.6 |
| 20260509091542 | 45 | 296 | 1.0 | 4.0 | 0.00 | 0.00 | 0.00 | 56 | 1008.6 |
| 20260509090047 | 44 | 295 | 0.0 | 2.0 | 0.00 | 0.00 | 0.00 | 61 | 1001.8 |
| 20260509090040 | 44 | 0 | 0.0 | 2.0 | 0.00 | 0.00 | 0.00 | 61 | 1008.9 |
| 20260509084545 | 45 | 295 | 0.0 | 1.0 | 0.00 | 0.00 | 0.00 | 62 | 1001.5 |
| 20260509084538 | 45 | 0 | 0.0 | 1.0 | 0.00 | 0.00 | 0.00 | 61 | 1008.7 |
| 20260509083043 | 46 | 295 | 0.0 | 1.0 | 0.00 | 0.00 | 0.00 | 59 | 1001.7 |
| 20260509081546 | 45 | 295 | 0.0 | 1.0 | 0.00 | 0.00 | 0.00 | 59 | 1001.7 |
| 20260509081543 | 45 | 0 | 0.0 | 0.0 | 0.00 | 0.00 | 0.00 | 60 | 1008.7 |
| 20260509080042 | 45 | 295 | 0.0 | 0.0 | 0.00 | 0.00 | 0.00 | 56 | 1001.6 |
| 20260509080038 | 45 | 0 | 0.0 | 0.0 | 0.00 | 0.00 | 0.00 | 56 | 1008.8 |
| 20260509074544 | 47 | 295 | 0.0 | 2.0 | 0.00 | 0.00 | 0.00 | 53 | 1008.5 |
| 20260509074539 | 47 | 295 | 0.0 | 2.0 | 0.00 | 0.00 | 0.00 | 54 | 1001.3 |
| 20260509073048 | 47 | 0 | 1.0 | 7.0 | 0.00 | 0.00 | 0.00 | 56 | 1008.9 |
| 20260509073039 | 47 | 295 | 0.0 | 7.0 | 0.00 | 0.00 | 0.00 | 56 | 1001.8 |
| 20260509071547 | 48 | 296 | 2.0 | 4.0 | 0.00 | 0.00 | 0.00 | 51 | 1009.0 |
| 20260509071543 | 48 | 297 | 2.0 | 5.0 | 0.00 | 0.00 | 0.00 | 51 | 1001.9 |
| 20260509070045 | 47 | 0 | 0.0 | 6.0 | 0.00 | 0.00 | 0.00 | 52 | 1009.0 |
| 20260509070037 | 47 | 263 | 0.0 | 6.0 | 0.00 | 0.00 | 0.00 | 52 | 1001.9 |
| 20260509064546 | 48 | 0 | 0.0 | 3.0 | 0.00 | 0.00 | 0.00 | 50 | 1008.9 |
| 20260509064534 | 48 | 258 | 0.0 | 3.0 | 0.00 | 0.00 | 0.00 | 50 | 1001.8 |
| 20260509063038 | 49 | 257 | 0.0 | 3.0 | 0.00 | 0.00 | 0.00 | 49 | 1008.6 |
| 20260509061543 | 49 | 258 | 0.0 | 4.0 | 0.00 | 0.00 | 0.00 | 49 | 1001.7 |
| 20260509061536 | 49 | 0 | 0.0 | 4.0 | 0.00 | 0.00 | 0.00 | 49 | 1008.8 |
| 20260509060039 | 49 | 257 | 1.0 | 7.0 | 0.00 | 0.00 | 0.00 | 50 | 1008.8 |
| 20260509060032 | 49 | 257 | 2.0 | 5.0 | 0.00 | 0.00 | 0.00 | 51 | 1001.8 |
| 20260509054556 | 47 | 269 | 5.0 | 14.0 | 0.00 | 0.00 | 0.00 | 53 | 1009.1 |
| 20260509054529 | 47 | 272 | 6.0 | 14.0 | 0.00 | 0.00 | 0.00 | 53 | 1001.9 |
| 20260509053041 | 47 | 0 | 0.0 | 2.0 | 0.00 | 0.00 | 0.00 | 55 | 1008.6 |
| 20260509053030 | 47 | 165 | 0.0 | 2.0 | 0.00 | 0.00 | 0.00 | 56 | 1001.5 |
| 20260509051541 | 47 | 0 | 0.0 | 0.0 | 0.00 | 0.00 | 0.00 | 56 | 1008.6 |
| 20260509051531 | 47 | 165 | 0.0 | 0.0 | 0.00 | 0.00 | 0.00 | 57 | 1001.5 |
| 20260509050039 | 47 | 0 | 0.0 | 5.0 | 0.00 | 0.00 | 0.00 | 55 | 1008.5 |
| 20260509050028 | 47 | 165 | 0.0 | 2.0 | 0.00 | 0.00 | 0.00 | 55 | 1001.5 |
| 20260509044536 | 50 | 0 | 0.0 | 5.0 | 0.00 | 0.00 | 0.00 | 50 | 1008.3 |
| 20260509044529 | 50 | 165 | 0.0 | 5.0 | 0.00 | 0.00 | 0.00 | 50 | 1001.3 |
| 20260509043045 | 50 | 0 | 2.0 | 6.0 | 0.00 | 0.00 | 0.00 | 48 | 1008.7 |
| 20260509043019 | 50 | 165 | 2.0 | 6.0 | 0.00 | 0.00 | 0.00 | 48 | 1001.7 |
| 20260509041608 | 51 | 167 | 2.0 | 7.0 | 0.00 | 0.00 | 0.00 | 48 | 1008.8 |
| 20260509041518 | 51 | 167 | 3.0 | 7.0 | 0.00 | 0.00 | 0.00 | 48 | 1001.8 |
| 20260509040041 | 51 | 206 | 2.0 | 5.0 | 0.00 | 0.00 | 0.00 | 47 | 1008.9 |
| 20260509040017 | 51 | 206 | 2.0 | 5.0 | 0.00 | 0.00 | 0.00 | 48 | 1002.0 |
| 20260509034539 | 50 | 221 | 0.0 | 3.0 | 0.00 | 0.00 | 0.00 | 51 | 1009.0 |
| 20260509034516 | 50 | 221 | 0.0 | 3.0 | 0.00 | 0.00 | 0.00 | 51 | 1002.1 |
| 20260509033037 | 52 | 223 | 0.0 | 4.0 | 0.00 | 0.00 | 0.00 | 46 | 1009.3 |
| 20260509033014 | 52 | 223 | 0.0 | 4.0 | 0.00 | 0.00 | 0.00 | 46 | 1002.3 |
| 20260509031544 | 52 | 229 | 0.0 | 3.0 | 0.00 | 0.00 | 0.00 | 45 | 1009.5 |
| 20260509031512 | 52 | 229 | 0.0 | 3.0 | 0.00 | 0.00 | 0.00 | 46 | 1002.5 |
| 20260509030040 | 53 | 0 | 0.0 | 1.0 | 0.00 | 0.00 | 0.00 | 45 | 1009.6 |
| 20260509030012 | 53 | 229 | 0.0 | 1.0 | 0.00 | 0.00 | 0.00 | 46 | 1002.5 |
| 20260509024540 | 53 | 0 | 0.0 | 1.0 | 0.00 | 0.00 | 0.00 | 43 | 1009.6 |
| 20260509024509 | 53 | 229 | 0.0 | 0.0 | 0.00 | 0.00 | 0.00 | 44 | 1002.7 |
| 20260509023046 | 54 | 0 | 0.0 | 0.0 | 0.00 | 0.00 | 0.00 | 42 | 1009.7 |
| 20260509023014 | 54 | 229 | 0.0 | 0.0 | 0.00 | 0.00 | 0.00 | 43 | 1002.8 |
| 20260509021538 | 55 | 0 | 0.0 | 1.0 | 0.00 | 0.00 | 0.00 | 38 | 1009.8 |
| 20260509021511 | 55 | 229 | 0.0 | 1.0 | 0.00 | 0.00 | 0.00 | 39 | 1002.9 |
| 20260509020045 | 56 | 0 | 0.0 | 0.0 | 0.00 | 0.00 | 0.00 | 37 | 1009.7 |
| 20260509020007 | 56 | 229 | 0.0 | 0.0 | 0.00 | 0.00 | 0.00 | 38 | 1002.9 |
| 20260509014542 | 56 | 0 | 0.0 | 0.0 | 0.00 | 0.00 | 0.00 | 40 | 1009.8 |
| 20260509014506 | 56 | 229 | 0.0 | 0.0 | 0.00 | 0.00 | 0.00 | 39 | 1002.9 |
| 20260509013043 | 58 | 0 | 0.0 | 1.0 | 0.00 | 0.00 | 0.00 | 37 | 1009.8 |
| 20260509013013 | 58 | 229 | 0.0 | 0.0 | 0.00 | 0.00 | 0.00 | 35 | 1003.0 |
| 20260509011541 | 58 | 0 | 0.0 | 4.0 | 0.00 | 0.00 | 0.00 | 35 | 1009.9 |
| 20260509011504 | 58 | 229 | 0.0 | 3.0 | 0.00 | 0.00 | 0.00 | 35 | 1003.2 |
| 20260509010104 | 59 | 232 | 1.0 | 4.0 | 0.00 | 0.00 | 0.00 | 33 | 1003.3 |
| 20260509010041 | 59 | 232 | 0.0 | 4.0 | 0.00 | 0.00 | 0.00 | 34 | 1010.1 |
| 20260509004537 | 59 | 0 | 0.0 | 8.0 | 0.00 | 0.00 | 0.00 | 34 | 1010.1 |
| 20260509004501 | 59 | 302 | 0.0 | 8.0 | 0.00 | 0.00 | 0.00 | 34 | 1003.3 |
| 20260509003103 | 60 | 265 | 3.0 | 14.0 | 0.00 | 0.00 | 0.00 | 32 | 1003.3 |
| 20260509003037 | 60 | 263 | 3.0 | 14.0 | 0.00 | 0.00 | 0.00 | 32 | 1010.1 |
| 20260509001600 | 61 | 220 | 6.0 | 15.0 | 0.00 | 0.00 | 0.00 | 31 | 1003.5 |
| 20260509001539 | 61 | 248 | 4.0 | 15.0 | 0.00 | 0.00 | 0.00 | 31 | 1010.1 |
| 20260509000059 | 61 | 275 | 5.0 | 14.0 | 0.00 | 0.00 | 0.00 | 32 | 1003.6 |
| 20260509000041 | 61 | 277 | 3.0 | 14.0 | 0.00 | 0.00 | 0.00 | 31 | 1010.2 |
| 20260508234559 | 62 | 249 | 7.0 | 17.0 | 0.00 | 0.00 | 0.00 | 30 | 1003.7 |
| 20260508234541 | 62 | 273 | 7.0 | 18.0 | 0.00 | 0.00 | 0.00 | 30 | 1010.4 |
| 20260508233056 | 62 | 290 | 9.0 | 16.0 | 0.00 | 0.00 | 0.00 | 31 | 1003.8 |
| 20260508233039 | 62 | 299 | 8.0 | 16.0 | 0.00 | 0.00 | 0.00 | 30 | 1010.5 |
| 20260508231555 | 61 | 313 | 10.0 | 17.0 | 0.00 | 0.00 | 0.00 | 30 | 1003.9 |
| 20260508231537 | 61 | 275 | 8.0 | 19.0 | 0.00 | 0.00 | 0.00 | 30 | 1010.6 |
| 20260508230059 | 62 | 217 | 6.0 | 16.0 | 0.00 | 0.00 | 0.00 | 30 | 1004.0 |
| 20260508230041 | 62 | 215 | 7.0 | 18.0 | 0.00 | 0.00 | 0.00 | 31 | 1010.7 |
| 20260508224604 | 62 | 228 | 7.0 | 19.0 | 0.00 | 0.00 | 0.00 | 31 | 1004.1 |
| 20260508224535 | 62 | 241 | 8.0 | 19.0 | 0.00 | 0.00 | 0.00 | 29 | 1010.8 |
| 20260508223052 | 62 | 286 | 4.0 | 16.0 | 0.00 | 0.00 | 0.00 | 32 | 1004.0 |
| 20260508223039 | 62 | 304 | 4.0 | 16.0 | 0.00 | 0.00 | 0.00 | 32 | 1010.7 |
| 20260508221559 | 62 | 224 | 6.0 | 17.0 | 0.00 | 0.00 | 0.00 | 30 | 1004.1 |
| 20260508221539 | 62 | 224 | 8.0 | 17.0 | 0.00 | 0.00 | 0.00 | 30 | 1010.7 |
| 20260508220050 | 62 | 249 | 7.0 | 17.0 | 0.00 | 0.00 | 0.00 | 29 | 1004.3 |
| 20260508220041 | 62 | 254 | 6.0 | 17.0 | 0.00 | 0.00 | 0.00 | 28 | 1010.8 |
| 20260508214550 | 63 | 235 | 6.0 | 16.0 | 0.00 | 0.00 | 0.00 | 29 | 1004.3 |
| 20260508214537 | 63 | 289 | 6.0 | 16.0 | 0.00 | 0.00 | 0.00 | 28 | 1010.8 |
| 20260508213107 | 62 | 250 | 9.0 | 16.0 | 0.00 | 0.00 | 0.00 | 28 | 1004.4 |
| 20260508213042 | 62 | 229 | 9.0 | 15.0 | 0.00 | 0.00 | 0.00 | 28 | 1010.9 |
| 20260508211549 | 62 | 205 | 8.0 | 17.0 | 0.00 | 0.00 | 0.00 | 29 | 1004.4 |
| 20260508211541 | 62 | 219 | 7.0 | 17.0 | 0.00 | 0.00 | 0.00 | 30 | 1010.9 |
| 20260508210047 | 62 | 213 | 6.0 | 13.0 | 0.00 | 0.00 | 0.00 | 32 | 1004.4 |
| 20260508210040 | 62 | 226 | 6.0 | 16.0 | 0.00 | 0.00 | 0.00 | 31 | 1011.0 |
| 20260508204548 | 62 | 214 | 5.0 | 13.0 | 0.00 | 0.00 | 0.00 | 30 | 1004.7 |
| 20260508204540 | 62 | 213 | 6.0 | 15.0 | 0.00 | 0.00 | 0.00 | 29 | 1011.2 |